Temp_Advection
nan nan nan nan nan nan nan nan nan nan nan nan nan nan nan nan nan nan nan nan nan nan nan nan nan nan nan nan nan nan nan nan nan nan nan nan nan nan nan nan nan nan nan nan nan nan nan
nan 0 0 0 -0 -0 -0 -0 -0 -0 -0 -0 -0 -0 -0 -0 -0 -0 -0 -0 -0 -0 -0 -0 0 1 -0 -2 -1 0 -0 1 1 -1 -1 -1 -1 -0 -0 -0 -0 -0 0 -0 -0 -0 nan
nan -0 -0 -0 -0 -0 -0 -0 -0 -0 -0 -0 -0 -0 -0 -1 -0 -0 -0 -0 -0 -0 -0 0 0 1 -1 -3 0 0 1 1 -0 -0 -1 -0 -0 -0 -0 0 0 -0 -1 -1 -1 -0 nan
nan -0 -0 -0 -0 -0 -0 -0 -0 -0 -0 -0 -0 -0 -0 -0 -0 -0 -1 -1 -0 -1 -0 -0 1 1 -1 -1 -0 0 -0 0 -0 -0 -0 0 0 -1 -0 -0 -0 -1 -1 -1 -1 -0 nan
nan -0 -0 -0 -0 -0 -0 -0 -0 -0 -1 -0 -0 -1 -1 -0 -1 -0 -1 -1 -1 -1 -1 0 1 0 -1 -0 -0 0 -0 -0 -0 -0 0 0 -0 -1 -1 -0 -1 -0 -0 -1 -0 -0 nan
nan -0 -1 -0 -0 -0 -0 -0 -0 -0 -1 -1 -0 -1 -1 -0 -0 -1 -0 -1 -0 -0 -0 0 -0 -1 -2 -0 0 -0 -0 -0 -0 -0 -1 -0 -1 -1 -1 -0 -1 -1 -1 -1 -0 -0 nan
nan -0 -0 -0 0 -0 -0 -0 -0 0 -0 -1 -1 -1 -1 -1 -0 -0 -0 -0 -1 0 -1 -2 -0 -0 0 0 -0 -0 -1 -0 -1 -1 -1 -1 -1 -1 -1 -1 -1 -0 0 -0 -1 0 nan
nan -0 -0 -0 -0 -0 -0 -1 -0 -0 0 -0 -1 -1 -1 -1 -0 -1 -1 -0 -1 -1 -2 -2 -1 -1 0 0 -1 -1 -0 -1 -2 -2 -1 -1 -1 -2 -0 0 1 0 0 -1 -0 0 nan
nan -0 -0 -0 -0 -0 -1 -1 -1 -1 -0 0 -1 -1 -1 -1 -1 -1 -0 -0 -0 -0 -2 -1 -1 -1 -0 -2 -1 -1 -1 -1 -1 -1 -0 -1 -1 0 0 1 0 0 -1 -1 -0 0 nan
nan -0 -0 -0 -0 -0 -1 -1 -1 -1 -1 -0 -0 -1 -1 -1 -1 -1 -0 0 0 -1 -2 -1 -0 0 -1 -1 -1 -0 -1 -0 -1 -1 -1 -1 0 1 0 0 -0 -1 -1 -0 -0 0 nan
nan -0 -0 -0 -1 -1 -1 -1 -1 -1 -1 -1 -0 -0 -0 -1 -1 -0 -0 -0 -0 -1 -2 0 -1 -0 -0 -1 -0 -0 -1 -1 -1 -1 -0 -0 0 -1 -0 -1 -0 -1 -0 0 0 -0 nan
nan -0 -0 -1 -1 -1 0 0 0 0 0 -0 -0 -0 -0 -0 -0 -0 -0 0 -0 -2 -1 0 -0 -0 -1 -1 -0 -0 -1 -1 -1 -0 0 -0 -0 -0 -0 -0 -0 -0 0 0 0 0 nan
nan -0 -0 -0 0 0 0 0 0 0 0 0 0 0 -0 -0 0 -0 -0 -0 -1 -1 0 -0 -0 0 -0 -0 0 -0 -1 -0 -0 -0 -1 0 0 0 -0 0 0 1 0 -0 0 -0 nan
nan -0 -0 0 0 0 -0 -0 -0 -0 -1 -1 0 -0 -0 -0 -0 -0 -1 -1 -1 -0 -1 -2 -1 -1 -1 0 0 0 -0 -1 -1 -2 -0 0 -0 -1 -0 -0 -0 -0 -0 -0 -1 -1 nan
nan 0 0 -0 -0 -1 -0 -0 -0 -1 -0 -0 -0 -0 0 0 0 -0 -1 -1 0 -2 -1 -1 -2 -1 0 0 -0 -0 -1 0 -1 -1 0 -1 -1 -1 0 -0 -0 -1 -1 -1 -0 0 nan
nan 0 -0 -0 -0 -0 -0 -1 -1 -1 -0 0 -1 0 0 -0 0 -0 -1 -0 -1 -0 -1 -1 -1 -1 -1 -0 -0 -0 1 -0 0 1 0 0 -0 0 -0 0 0 -0 0 0 0 1 nan
nan -0 -0 -0 0 -0 -0 -0 -1 -0 -0 -1 -0 0 -0 -0 0 -0 -0 -0 -1 -0 -0 -1 -1 -1 -1 -1 -1 -0 0 -0 -1 1 0 -1 -1 1 0 -0 -0 -0 0 -1 -0 0 nan
nan -0 -0 -0 -0 -0 -0 -0 -0 -0 -1 -1 -0 -0 0 0 -0 -0 -0 -0 -1 -0 -0 -1 -0 -1 -1 -1 -1 -0 0 -0 -1 -1 -1 -1 -0 0 0 -1 -0 0 -0 -0 0 -0 nan
nan -0 -0 -0 -0 -0 -0 -0 -0 -0 -1 -0 -0 -0 0 0 -0 -0 -0 -0 -0 -0 -0 -1 -1 -1 -1 -1 -0 -0 -0 -0 -0 -0 0 1 -0 -0 -0 0 1 1 -0 -0 -1 0 nan
nan -0 -0 0 0 0 -0 -0 -0 -0 -0 -0 -1 -0 -0 0 -0 -0 -0 -0 -0 -0 0 0 -1 -3 -3 -1 -0 -0 -0 -0 0 -1 -0 -1 -2 -0 0 1 1 -0 -0 0 0 0 nan
nan -0 -0 0 0 0 0 0 -0 -0 -0 0 -0 -0 -0 -1 -0 -0 -0 -0 -0 -0 -0 1 -0 -1 -1 -2 -1 0 -1 -1 -0 -0 0 -0 0 -0 0 -0 -1 0 1 1 1 0 nan
nan 0 0 -0 0 0 0 0 0 -0 -1 -0 -0 -0 -0 -1 -1 -0 -0 -0 -0 -0 -0 -0 1 1 0 -0 -1 -1 -1 -1 -0 -0 -1 -0 0 0 -0 -0 0 0 -0 -0 -0 0 nan
nan 0 0 0 0 0 0 1 0 0 -0 -0 -0 -0 -0 -0 -0 -0 0 -0 -1 -1 -0 -0 -0 0 0 1 -0 -1 -1 -1 -1 -1 -1 -1 -0 -0 -1 0 0 -1 -1 -0 0 0 nan
nan 0 0 0 0 0 0 0 1 1 0 -0 -0 -0 -0 -1 -0 0 -0 0 0 -0 -0 -1 -1 -0 -0 0 -0 -1 -1 -1 -1 -0 -0 -0 -0 -1 -0 0 -1 -2 -0 1 0 -0 nan
nan 0 0 0 0 0 0 0 1 1 1 0 0 -0 -0 -1 -1 -0 0 0 0 0 -0 -0 -0 -0 -0 -1 -1 -1 -0 -0 -1 -0 -0 -0 -0 -0 -0 -0 -1 0 0 0 0 -0 nan
nan 0 0 0 0 1 0 0 1 1 1 0 0 0 -0 -0 -0 -0 0 -0 -0 -0 -0 0 -0 0 -0 -0 -0 -0 -0 -0 0 0 -0 0 0 -0 0 -0 -1 -0 0 -0 -0 -0 nan
nan 0 0 0 1 1 1 0 1 1 1 0 -0 0 0 -0 -1 -1 -0 0 -0 -0 -0 -0 -0 -0 -0 -0 -0 -0 -0 -0 -0 -0 0 0 0 -0 -0 -1 -1 -0 -0 -0 1 0 nan
nan -0 0 0 1 0 1 0 0 1 1 0 0 0 0 0 -1 -1 -0 0 0 -0 -0 -0 -0 -0 -0 -0 -0 -0 -0 -0 -0 -0 -0 0 -0 -0 -0 -0 -2 -1 -0 1 -1 -1 nan
nan nan nan nan nan nan nan nan nan nan nan nan nan nan nan nan nan nan nan nan nan nan nan nan nan nan nan nan nan nan nan nan nan nan nan nan nan nan nan nan nan nan nan nan nan nan nan
Wind_Speed
21 22 23 23 24 24 24 24 24 24 24 24 24 24 24 23 23 24 25 25 25 23 21 20 19 16 12 10 17 9 6 2 17 29 29 30 30 27 19 18 12 19 11 9 11 12 11
22 23 23 24 25 25 25 26 26 26 26 26 26 27 27 26 25 26 26 28 25 21 20 20 20 15 11 16 12 14 20 15 22 29 29 30 29 25 14 12 17 12 18 13 10 10 11
23 24 25 25 25 26 26 26 27 27 27 28 28 29 29 30 28 27 29 25 26 21 18 18 19 16 15 24 13 10 15 19 24 27 31 30 20 26 10 14 16 19 13 14 15 12 8
24 25 25 26 26 27 28 28 28 28 28 28 29 30 30 30 30 28 27 25 24 17 12 12 15 13 13 12 23 13 15 20 22 21 22 24 17 28 14 4 7 16 17 16 17 16 12
23 24 25 26 27 28 29 29 29 29 30 30 31 32 31 31 31 28 25 24 21 16 10 5 8 10 8 13 23 26 20 22 24 20 20 20 22 22 23 14 13 14 15 20 16 14 6
24 25 26 27 27 28 28 29 29 30 31 31 32 33 32 31 32 25 21 21 18 13 3 1 3 7 14 7 10 24 23 17 27 24 19 19 19 17 18 17 19 20 20 17 16 16 15
23 24 25 26 27 28 29 30 31 31 32 32 32 32 32 31 31 17 21 13 8 5 7 12 4 8 1 5 9 19 30 24 25 29 19 27 19 25 27 24 20 18 19 20 16 13 11
23 24 26 27 28 29 30 31 32 32 33 34 35 34 33 31 28 15 14 4 7 8 18 22 29 31 20 3 11 20 34 24 28 27 23 18 27 23 22 21 20 21 18 22 15 9 9
24 26 27 28 29 31 32 33 34 34 34 34 35 34 33 31 18 18 8 4 11 14 10 15 19 22 23 26 14 26 43 34 27 28 31 25 15 23 23 22 23 23 24 21 15 12 15
25 25 26 28 29 29 29 29 30 31 32 33 34 33 32 30 9 18 5 16 16 10 6 7 8 7 17 19 15 23 42 41 18 29 28 28 22 22 25 26 23 25 25 21 20 17 15
24 26 28 28 28 29 30 31 32 33 33 32 33 30 28 22 18 10 19 21 13 2 7 8 8 6 10 22 8 27 33 40 26 24 27 22 27 23 29 26 26 22 18 20 21 19 18
26 27 27 26 27 29 32 34 36 37 36 35 34 29 22 15 13 15 23 20 2 6 10 6 6 9 9 20 9 15 29 35 30 24 27 27 19 24 22 20 23 15 16 14 15 17 20
25 24 24 27 30 32 33 33 34 34 34 35 33 28 10 13 15 23 21 7 7 9 5 4 3 1 9 12 19 15 29 31 24 25 30 26 27 18 17 21 21 22 17 9 12 17 20
24 25 26 28 28 28 29 31 33 34 35 35 30 22 9 15 21 22 14 9 14 2 7 17 10 16 12 11 13 21 21 27 32 26 17 22 21 30 24 28 18 27 23 12 16 14 17
24 24 25 26 26 27 28 29 31 32 33 34 29 17 8 19 21 16 11 9 9 13 14 14 19 10 11 8 6 14 22 25 33 29 23 22 26 30 20 21 26 25 25 27 6 5 9
21 23 23 23 24 25 27 29 31 32 33 32 24 12 11 22 17 9 8 8 9 11 17 13 14 7 7 1 8 8 16 2 25 32 8 16 19 19 24 27 25 20 25 22 15 17 18
21 22 22 23 23 24 27 29 31 32 33 30 16 8 16 20 11 10 5 10 13 16 14 10 14 13 12 9 9 6 4 7 6 13 5 14 14 23 22 25 26 22 19 23 18 17 13
20 20 22 24 24 23 25 27 29 32 33 23 15 6 19 20 5 6 7 11 16 12 16 11 10 12 13 11 10 4 4 7 8 7 17 17 10 11 26 25 26 29 23 27 14 23 19
19 20 21 22 23 23 23 25 26 28 30 21 13 7 13 17 6 7 10 9 10 12 11 11 9 10 14 14 5 3 1 4 11 5 1 7 14 15 16 21 23 30 28 25 25 16 21
20 21 22 22 22 23 22 22 23 24 24 16 10 5 8 8 6 13 11 11 11 9 6 15 8 16 15 15 10 4 3 5 8 9 9 5 14 23 19 20 19 26 29 27 27 19 17
21 22 22 23 23 23 22 22 21 21 20 12 7 5 5 7 11 14 13 9 11 9 12 11 3 10 11 7 12 12 6 10 1 9 6 5 14 9 15 2 6 18 28 30 30 26 23
21 21 21 22 23 24 23 22 20 21 19 7 8 5 4 14 12 13 5 9 10 14 14 11 11 8 9 6 11 12 11 6 5 9 8 5 4 6 14 10 7 10 12 13 22 27 26
21 21 22 23 24 26 25 23 19 19 14 6 5 6 5 6 9 8 7 12 15 15 10 8 15 14 12 11 10 17 18 17 15 11 8 7 3 8 15 10 10 15 20 19 18 17 17
22 22 23 25 26 27 27 26 23 16 16 12 10 7 5 7 7 10 14 15 13 12 12 20 18 14 11 16 20 21 21 19 16 13 12 8 8 6 6 6 15 11 10 20 23 18 19
24 24 25 27 27 28 28 27 26 20 18 15 14 8 5 6 13 15 9 11 14 14 13 17 12 8 10 16 10 9 9 8 15 15 14 13 9 7 10 12 9 5 3 8 11 17 17
27 27 27 29 29 31 29 28 27 23 18 16 19 14 9 5 4 7 17 14 11 9 8 9 10 10 8 6 6 7 5 4 6 7 15 14 12 9 7 15 14 4 16 2 2 9 6
28 30 30 31 31 32 30 29 27 24 19 18 20 18 11 8 15 10 9 9 8 9 7 11 7 6 4 4 7 6 8 2 5 10 12 14 11 14 13 11 9 8 8 2 11 4 6
30 31 32 33 32 31 31 29 27 24 22 17 22 17 18 10 23 23 18 16 16 15 9 6 8 2 4 4 4 3 6 3 6 10 6 10 12 12 13 16 21 7 9 12 11 12 13
34 34 32 33 32 31 31 29 25 28 21 16 20 19 17 22 16 25 26 27 26 23 21 7 10 5 3 3 2 3 4 4 6 9 9 13 12 11 9 11 13 7 12 14 19 19 18
Wind_Direction
25 22 23 22 19 17 15 12 9 6 2 358 354 348 343 341 334 327 322 315 309 304 295 284 277 270 271 243 243 265 194 99 179 172 185 187 191 198 209 204 205 225 248 240 244 259 262
23 22 21 18 16 15 12 10 8 5 0 356 352 347 342 339 335 329 322 318 312 309 289 275 265 259 238 247 250 234 242 243 183 180 189 192 198 201 230 219 213 203 235 251 258 254 250
20 19 18 17 15 13 10 8 6 4 359 355 351 348 345 341 337 330 325 316 320 312 293 266 253 241 236 240 242 224 200 196 184 187 188 195 198 198 212 214 221 241 247 247 243 239 236
20 20 17 15 13 10 8 7 6 3 358 353 348 347 346 344 341 333 326 319 319 316 305 262 242 224 245 260 230 225 196 191 193 196 201 197 202 205 224 228 224 225 235 246 224 217 217
20 17 15 14 12 9 7 5 4 1 357 353 349 346 346 344 342 336 330 323 318 312 316 267 214 197 252 239 228 207 192 190 189 188 195 196 205 217 221 231 234 212 231 220 221 192 207
17 15 15 12 10 8 6 4 2 360 356 351 347 345 344 345 342 336 335 329 319 321 316 258 196 208 232 228 208 192 191 187 180 176 178 194 204 211 220 210 217 212 220 243 222 210 216
17 14 12 10 9 7 6 3 1 360 357 352 348 345 342 345 344 339 348 344 318 249 259 240 264 250 353 203 172 189 184 173 174 180 185 191 200 208 207 217 225 234 225 227 225 224 228
15 12 10 10 7 5 4 1 359 357 354 352 348 346 342 344 344 341 356 41 52 332 298 266 251 243 233 215 209 184 177 173 185 190 193 184 216 212 217 212 222 230 231 231 233 203 243
13 12 9 7 5 4 1 359 358 357 354 351 348 347 341 344 346 354 21 51 341 336 265 281 237 238 223 215 220 186 185 188 188 193 198 204 211 211 208 213 215 223 227 234 236 209 234
11 9 7 7 4 2 358 357 356 356 354 351 350 348 342 344 6 355 346 331 320 320 276 210 208 234 189 193 220 202 197 191 191 201 201 220 210 202 209 217 209 223 218 237 241 236 248
8 8 8 5 1 358 357 357 356 355 355 354 350 349 341 346 335 346 324 325 314 232 273 102 138 165 171 195 141 190 194 201 208 204 202 205 215 204 210 210 213 232 227 220 238 245 248
10 8 4 0 359 359 358 357 355 353 353 353 353 348 343 346 342 331 327 326 263 227 238 147 132 181 174 211 216 171 185 205 220 216 210 223 208 212 219 214 220 218 229 225 230 236 239
9 5 2 3 2 1 359 356 355 352 350 350 352 349 359 348 331 327 330 314 229 241 102 81 14 177 233 194 213 188 193 196 204 206 214 209 221 218 206 210 202 199 194 190 210 217 234
7 5 5 3 0 358 356 357 356 353 350 349 352 354 344 349 334 329 327 250 245 18 10 348 318 291 238 195 227 203 190 205 212 209 196 206 217 204 200 207 191 196 202 213 211 213 228
5 3 3 359 357 358 355 356 355 354 352 351 354 348 354 338 334 332 300 245 267 17 347 323 307 262 195 196 270 215 218 215 204 211 230 199 223 185 205 201 201 193 215 215 251 194 267
0 2 359 357 357 356 357 359 357 356 356 358 355 348 354 344 336 325 269 294 358 345 331 319 297 359 314 5 257 209 195 6 212 213 241 253 216 183 195 200 206 201 206 212 231 239 233
2 359 356 359 356 357 357 357 357 357 358 4 358 340 344 348 342 310 349 347 326 329 338 316 329 313 308 306 305 258 167 42 328 193 224 243 235 192 184 201 192 202 204 213 225 231 218
1 359 2 3 357 356 355 354 356 358 358 3 357 336 344 360 333 346 4 330 322 320 338 307 293 290 297 314 289 255 155 28 351 262 217 219 230 205 202 198 215 202 204 202 216 212 239
358 1 3 5 2 359 355 351 354 359 1 358 346 320 343 6 14 355 349 319 326 339 8 341 306 349 301 292 277 318 333 44 1 6 173 184 221 212 187 203 203 215 204 211 219 233 213
353 355 359 360 0 359 355 349 348 355 359 4 340 329 355 331 351 348 342 338 334 3 323 345 345 318 316 256 245 300 351 24 356 13 322 256 243 222 215 206 194 216 205 213 211 223 227
347 351 356 356 355 355 354 350 345 348 354 10 358 20 349 326 334 333 320 315 332 345 343 318 105 21 355 295 285 255 338 316 248 6 335 308 218 239 248 318 270 218 213 213 215 223 227
341 348 352 352 352 350 350 346 348 340 348 352 335 332 310 299 309 308 320 321 346 337 330 319 338 336 326 305 308 322 326 322 329 340 326 334 199 228 233 211 226 227 228 235 231 226 232
335 342 344 344 346 344 343 340 335 330 338 310 301 301 288 292 293 316 322 330 317 316 307 302 325 320 312 311 299 287 290 283 277 293 312 290 283 226 221 205 241 235 220 215 225 226 233
329 334 335 336 339 338 336 333 330 318 315 290 286 285 270 285 302 298 304 299 311 319 307 305 301 297 311 313 298 274 256 254 258 253 243 273 241 258 243 158 233 251 206 215 226 228 226
323 327 328 329 332 332 329 329 326 318 311 284 280 262 247 276 308 296 302 305 304 291 280 296 310 311 306 295 280 260 222 218 232 234 225 218 254 240 235 217 275 179 146 207 212 226 229
320 323 325 324 328 326 326 324 323 316 295 292 270 266 249 280 251 310 300 288 290 296 289 261 313 304 285 287 266 261 251 316 178 189 208 200 219 242 214 238 223 298 195 3 89 241 229
318 320 323 322 324 324 324 323 323 315 305 279 277 257 238 250 273 266 268 285 290 281 279 295 307 306 258 257 256 244 249 265 259 230 176 200 202 219 227 246 241 257 91 95 192 84 32
318 319 321 320 323 324 323 324 322 317 312 289 272 272 244 244 270 275 269 259 260 253 258 285 302 198 240 243 273 235 272 278 279 259 269 200 198 215 232 239 236 269 314 234 11 331 331
318 319 323 322 323 323 323 323 322 322 313 298 278 271 267 245 253 282 274 266 253 251 253 228 259 289 260 264 240 285 263 258 294 261 197 247 262 268 232 227 257 259 284 307 312 307 312
Height
1562 1559 1556 1553 1550 1547 1544 1540 1536 1532 1528 1524 1520 1515 1511 1507 1502 1497 1492 1488 1484 1482 1481 1479 1478 1480 1483 1484 1474 1473 1472 1472 1474 1482 1487 1491 1494 1494 1490 1490 1492 1493 1488 1489 1489 1489 1488
1562 1559 1556 1553 1550 1547 1543 1540 1536 1532 1527 1523 1518 1513 1508 1503 1499 1493 1487 1483 1479 1477 1474 1473 1473 1476 1479 1478 1470 1469 1470 1471 1473 1479 1484 1488 1489 1492 1489 1487 1488 1483 1488 1487 1486 1483 1484
1563 1560 1557 1553 1550 1546 1543 1539 1535 1531 1525 1520 1516 1511 1506 1500 1495 1489 1483 1478 1474 1471 1468 1467 1468 1471 1472 1465 1464 1464 1466 1470 1473 1477 1480 1483 1487 1490 1487 1486 1487 1485 1487 1483 1480 1479 1480
1564 1560 1557 1553 1549 1546 1542 1538 1534 1529 1524 1519 1514 1509 1503 1498 1492 1486 1480 1474 1469 1466 1463 1462 1464 1468 1463 1456 1459 1462 1465 1470 1474 1477 1481 1484 1487 1487 1485 1484 1483 1481 1480 1481 1469 1472 1476
1564 1560 1556 1553 1549 1545 1541 1537 1533 1528 1522 1517 1512 1506 1502 1496 1490 1483 1477 1471 1466 1463 1461 1460 1463 1466 1458 1449 1450 1456 1461 1465 1471 1476 1480 1483 1486 1485 1485 1484 1481 1473 1475 1473 1467 1468 1468
1564 1560 1557 1553 1549 1545 1541 1536 1532 1527 1521 1515 1510 1504 1499 1493 1487 1481 1476 1470 1464 1461 1460 1461 1462 1468 1450 1447 1447 1449 1457 1463 1467 1473 1479 1481 1483 1479 1476 1475 1477 1472 1474 1464 1467 1462 1466
1564 1561 1557 1553 1549 1544 1540 1535 1530 1525 1520 1514 1508 1503 1497 1491 1485 1479 1475 1471 1471 1466 1463 1454 1450 1444 1445 1445 1445 1447 1452 1460 1465 1470 1465 1471 1471 1463 1461 1465 1464 1458 1462 1466 1461 1459 1466
1565 1561 1557 1553 1548 1544 1539 1534 1530 1524 1518 1512 1506 1500 1495 1490 1484 1480 1476 1477 1477 1479 1459 1445 1438 1441 1442 1443 1442 1444 1449 1452 1454 1454 1458 1465 1455 1454 1459 1461 1465 1465 1467 1464 1458 1457 1465
1564 1560 1557 1552 1548 1543 1539 1534 1529 1524 1518 1512 1506 1500 1493 1488 1483 1481 1479 1478 1477 1475 1466 1431 1428 1427 1432 1439 1435 1434 1439 1440 1441 1446 1444 1443 1443 1451 1455 1459 1465 1465 1467 1464 1463 1458 1461
1564 1560 1557 1553 1549 1544 1539 1534 1528 1523 1517 1511 1505 1499 1493 1487 1486 1482 1483 1480 1476 1474 1456 1415 1420 1418 1423 1429 1429 1428 1433 1435 1436 1436 1439 1440 1439 1445 1450 1454 1458 1462 1458 1461 1461 1465 1471
1564 1560 1556 1552 1547 1542 1537 1532 1527 1521 1516 1510 1503 1498 1493 1487 1485 1486 1484 1477 1472 1474 1440 1406 1414 1417 1418 1416 1407 1418 1426 1433 1424 1427 1432 1431 1434 1439 1443 1443 1450 1453 1451 1457 1462 1464 1465
1563 1559 1555 1551 1546 1541 1536 1530 1524 1519 1513 1507 1502 1496 1491 1488 1486 1485 1479 1474 1474 1463 1431 1401 1409 1412 1415 1414 1410 1410 1419 1426 1428 1423 1423 1424 1426 1429 1432 1439 1444 1450 1454 1457 1461 1462 1467
1562 1558 1554 1549 1544 1539 1535 1530 1525 1519 1512 1506 1499 1493 1488 1487 1486 1480 1476 1476 1461 1435 1402 1410 1409 1407 1404 1403 1408 1408 1411 1414 1413 1422 1417 1421 1419 1424 1427 1436 1439 1446 1452 1464 1470 1461 1453
1562 1558 1553 1548 1544 1540 1535 1529 1523 1517 1511 1504 1498 1491 1488 1487 1484 1478 1476 1470 1449 1416 1424 1424 1422 1414 1408 1397 1401 1401 1404 1404 1405 1402 1401 1418 1426 1412 1412 1421 1429 1438 1439 1439 1460 1449 1443
1561 1557 1553 1549 1545 1539 1534 1529 1523 1517 1510 1502 1495 1492 1492 1488 1481 1477 1475 1455 1440 1448 1452 1445 1423 1408 1395 1401 1401 1400 1395 1393 1393 1391 1398 1401 1404 1397 1405 1412 1417 1428 1429 1416 1422 1423 1432
1560 1556 1552 1548 1543 1538 1533 1528 1522 1515 1508 1501 1494 1491 1491 1485 1480 1477 1469 1457 1455 1463 1460 1449 1433 1420 1409 1405 1405 1396 1387 1396 1383 1389 1391 1388 1400 1391 1402 1408 1409 1409 1415 1434 1424 1449 1450
1559 1556 1551 1546 1542 1537 1532 1527 1521 1515 1508 1501 1497 1491 1490 1484 1481 1473 1465 1467 1468 1467 1465 1455 1443 1437 1426 1420 1412 1395 1391 1409 1402 1390 1403 1395 1388 1386 1390 1395 1400 1410 1412 1414 1414 1414 1425
1558 1554 1550 1545 1541 1536 1531 1526 1521 1515 1508 1503 1500 1491 1491 1485 1480 1479 1474 1478 1476 1466 1463 1456 1451 1443 1435 1429 1417 1406 1405 1409 1418 1411 1404 1397 1389 1389 1386 1384 1390 1393 1402 1405 1413 1424 1416
1558 1554 1548 1544 1540 1535 1531 1526 1521 1516 1511 1506 1503 1498 1494 1490 1483 1483 1481 1476 1474 1469 1469 1465 1457 1449 1445 1436 1427 1418 1416 1423 1420 1410 1403 1399 1392 1395 1391 1386 1384 1386 1391 1394 1399 1396 1410
1558 1553 1548 1543 1539 1534 1530 1525 1521 1517 1513 1509 1506 1495 1493 1492 1492 1488 1485 1476 1472 1469 1470 1468 1471 1461 1449 1434 1427 1423 1419 1422 1422 1420 1420 1414 1388 1381 1377 1379 1382 1388 1384 1386 1395 1400 1400
1556 1552 1547 1542 1538 1534 1530 1525 1520 1517 1514 1512 1508 1502 1506 1494 1493 1493 1489 1479 1475 1475 1472 1466 1472 1474 1470 1446 1428 1427 1428 1425 1421 1421 1414 1407 1396 1396 1381 1390 1388 1375 1381 1381 1386 1392 1397
1555 1550 1546 1541 1537 1532 1529 1524 1521 1517 1514 1514 1511 1508 1504 1503 1496 1489 1484 1478 1475 1477 1475 1468 1467 1471 1469 1467 1459 1449 1443 1431 1424 1425 1419 1413 1403 1405 1399 1396 1398 1396 1391 1385 1383 1383 1390
1552 1548 1544 1539 1534 1530 1526 1523 1519 1515 1513 1511 1509 1507 1505 1498 1493 1488 1482 1485 1482 1480 1473 1471 1468 1465 1459 1461 1460 1456 1449 1444 1439 1437 1428 1423 1407 1411 1399 1393 1397 1401 1390 1393 1394 1392 1394
1549 1545 1541 1536 1532 1527 1523 1518 1516 1513 1510 1508 1507 1505 1503 1492 1488 1487 1485 1484 1481 1481 1479 1473 1468 1464 1460 1458 1454 1446 1440 1437 1435 1433 1433 1427 1421 1411 1397 1401 1413 1376 1372 1380 1389 1390 1392
1546 1541 1537 1532 1528 1523 1518 1514 1510 1507 1504 1502 1501 1501 1499 1492 1485 1482 1480 1479 1478 1477 1474 1468 1464 1462 1460 1457 1444 1432 1422 1426 1423 1424 1426 1428 1424 1413 1411 1404 1381 1378 1385 1386 1388 1387 1386
1542 1537 1533 1528 1524 1517 1513 1509 1504 1501 1498 1495 1494 1494 1495 1493 1480 1479 1479 1477 1472 1468 1467 1465 1462 1460 1458 1452 1442 1435 1413 1410 1409 1414 1418 1421 1428 1421 1407 1411 1402 1379 1378 1387 1389 1398 1384
1536 1532 1528 1523 1518 1512 1507 1503 1498 1494 1491 1489 1486 1486 1488 1486 1478 1478 1475 1474 1473 1471 1467 1463 1461 1458 1457 1451 1440 1431 1423 1418 1415 1411 1413 1417 1421 1421 1415 1408 1391 1379 1387 1393 1401 1398 1393
1531 1526 1522 1516 1511 1506 1500 1496 1491 1487 1484 1482 1480 1481 1482 1479 1470 1471 1471 1469 1469 1469 1467 1463 1462 1457 1454 1451 1441 1431 1428 1422 1418 1409 1406 1409 1415 1412 1414 1411 1408 1389 1393 1398 1399 1398 1398
1524 1520 1515 1510 1504 1499 1494 1489 1484 1480 1477 1475 1474 1474 1475 1473 1466 1465 1463 1462 1461 1461 1464 1464 1458 1454 1452 1449 1448 1445 1435 1431 1425 1416 1410 1417 1409 1401 1400 1396 1397 1395 1397 1399 1400 1400 1398